This demonstration page uses our WeatherBlox Daily Observations layout. Learn more.

Left ArrowRight Arrow

41.55636, -103.73856

Hourly Observations for June 26, 2015

Temp ( °F °C ) Dew Point ( °F °C ) Humidity (%) Winds ( mph kmh ) Pressure ( in mb ) Visibility ( mi km ) Precip ( " mm )
12:08 am 00:08 Mostly Cloudy 61 16 59 15 94 94 NNW 6 9 30.06 1018 10 16.0934 0 0
12:15 am 00:15 Partly Cloudy 61 16.1 58 14.4 90 90 NNW 7 11 30.06 1018 10 16.0934 0 0
12:53 am 00:53 Mostly Cloudy 61 16.1 59 15 93 93 NNW 3 6 30.09 1019 10 16.0934 0 0
1:53 am 01:53 Clear 60 15.6 58 14.4 93 93 Calm 30.06 1018 10 16.0934 0 0
2:53 am 02:53 Clear 59 15 57 13.9 93 93 W 3 6 30.08 1019 10 16.0934 0 0
3:53 am 03:53 Clear 58 14.4 56 13.3 93 93 NW 6 9 30.09 1019 10 16.0934 0 0
4:53 am 04:53 Partly Cloudy 58 14.4 56 13.3 93 93 NNW 7 11 30.12 1020 10 16.0934 0 0
5:53 am 05:53 Sunny 57 13.9 56 13.3 96 96 Calm 30.16 1021 10 16.0934 0 0
6:53 am 06:53 Sunny 61 16.1 58 14.4 90 90 W 3 6 30.17 1022 10 16.0934 0 0
7:44 am 07:44 Mostly Sunny 64 18 59 15 83 83 VRB 3 6 30.12 1020 10 16.0934 0 0
7:53 am 07:53 Mostly Sunny 64 17.8 59 15 84 84 Calm 30.17 1022 10 16.0934 0 0
8:49 am 08:49 Mostly Cloudy 66 19 61 16 83 83 Calm 30.09 1019 10 16.0934 0 0
8:53 am 08:53 Partly Cloudy 67 19.4 60 15.6 79 79 Calm 30.17 1022 10 16.0934 0 0
9:53 am 09:53 Sunny 73 22.8 60 15.6 64 64 N 5 7 30.15 1021 10 16.0934 0 0
10:53 am 10:53 Mostly Sunny 75 23.9 57 13.9 54 54 NNE 6 9 30.15 1021 10 16.0934 0 0
11:53 am 11:53 Mostly Sunny 78 25.6 54 12.2 43 43 NNW 9 15 30.14 1021 10 16.0934 0 0
12:53 pm 12:53 Partly Cloudy 80 26.7 55 12.8 42 42 ENE 7 11 30.13 1020 10 16.0934 0 0
1:53 pm 13:53 Mostly Cloudy 80 26.7 55 12.8 42 42 E 9 15 30.12 1020 10 16.0934 0 0
2:53 pm 14:53 Mostly Cloudy 81 27.2 55 12.8 41 41 ENE 8 13 30.11 1020 10 16.0934 0 0
3:53 pm 15:53 Mostly Cloudy 80 26.7 55 12.8 42 42 SE 10 17 30.11 1020 10 16.0934 0 0
4:53 pm 16:53 Mostly Cloudy 79 26.1 53 11.7 41 41 ESE 12 19 30.11 1020 10 16.0934 0 0
5:53 pm 17:53 Partly Cloudy 78 25.6 54 12.2 43 43 SE 13 20 30.1 1019 10 16.0934 0 0
6:53 pm 18:53 Sunny 77 25 55 12.8 47 47 SSE 10 17 30.1 1019 10 16.0934 0 0
7:53 pm 19:53 Mostly Sunny 74 23.3 56 13.3 54 54 SE 7 11 30.11 1020 10 16.0934 0 0
8:53 pm 20:53 Clear 69 20.6 60 15.6 73 73 ESE 6 9 30.11 1020 10 16.0934 0 0
9:53 pm 21:53 Clear 66 18.9 59 15 78 78 E 6 9 30.12 1020 10 16.0934 0 0
10:53 pm 22:53 Clear 63 17.2 57 13.9 81 81 E 5 7 30.13 1020 10 16.0934 0 0
11:53 pm 23:53 Clear 61 16.1 56 13.3 84 84 ESE 6 9 30.12 1020 10 16.0934 0 0

Powered by AerisWeather